User: anonymous
Location: Caltech
(34.1382°N, 118.1253°W)
Time: 23:39:03
(UTC-07:00)
Language:

Meteor 1-11 Rocket - Orbit

View from above orbital plane
View from above orbital plane
View from above satellite
View from above satellite

Ground track
Ground track

The orbit data is extracted from the following two-line orbital elements,

1 05918U 72022B   14209.72514601  .00000004  00000-0 -51539-5 0  2208
2 05918 081.2361 265.8705 0059149 050.7982 083.0227 14.05715304169848
Epoch (UTC): 28 July 2014 17:24:12
Eccentricity: 0.0059149
inclination: 81.2361°
perigee height: 831 km
apogee height: 917 km
right ascension of ascending node: 265.8705°
argument of perigee: 50.7982°
revolutions per day: 14.05715304
mean anomaly at epoch: 83.0227°
orbit number at epoch: 16984

The dashed part of the orbit path shows where the satellite is in the earth's shadow,  

DLR